Kosmos-1563

operational
NORAD ID: 15002 Int'l Des: 1984-052 Owner: GUKOS Country: SU
LEOCIRCULAR

About Kosmos-1563

Description loading...

Live Position

Loading 3D Globe...

Upcoming Passes

Altitude History

Altitude vs Time

uPlot chart will show altitude changes over time

Two-Line Element Set

1 15002U 84052E 25350.82667111 -.00000016 00000-0 27990-5 0 9994
2 15002 74.0108 127.7736 0025131 304.7827 168.4552 12.51836970631380
Epoch: Dec 16, 2025 • Age: 11 hours

Current Status

Altitude 1470.7 km
Velocity 7.13 km/s
Sub-Earth Point 50.08°N, 44.44°W
Launch Date May 28, 1984
Age 41.5 years
Type other

Technical Details

Classification Payload
Mass 60.00 kg
Dry Mass 60.00 kg
Total Mass 60.00 kg
Length 0.80 m
Diameter 0.80 m
Span 0.80 m
Shape Poly
Manufacturer NPOPM
Bus Type Strela-1 11F625
Phase Status In Orbit
Owner/State GUKOS/SU

Large Constellations

Loading constellations...